Weather Roundup
Issued by NWS Chicago, IL

Home | Current Version | Previous Version | Graphics & Text | Print | Product List | Glossary On
Versions: 1 2 3 4 5 6 7 8 9 10 11 12 13 14 15 16 17 18 19 20 21 22 23 24 25 26 27 28 29 30 31 32 33 34 35 36 37 38 39 40 41 42 43 44 45 46 47 48 49 50
590
NZUS59 KLOT 101508
HRRLOT

CHICAGO AREA WEATHER ROUNDUP
NATIONAL WEATHER SERVICE CHICAGO/ROMEOVILLE IL
900 AM CST WED FEB 10 2016

NOTE: "FAIR" INDICATES FEW OR NO CLOUDS BELOW 12,000 FEET WITH NO
SIGNIFICANT WEATHER AND/OR OBSTRUCTIONS TO VISIBILITY.

* THESE STATIONS ARE NOT UNDER NWS QUALITY CONTROL. THEY ALSO MAY NOT
  REPORT WEATHER SUCH AS PRECIPITATION OR FOG.

ILZ005-006-012>014-019>023-101600-
NORTHEAST ILLINOIS

CITY           SKY/WX    TMP DP  RH WIND       PRES   REMARKS
OHARE          MOSUNNY   12   2  64 NW15      30.03R WCI  -4
MIDWAY         MOSUNNY   13   0  56 NW12      30.04R WCI  -1
AURORA         PTSUNNY   11   2  67 NW16      30.06R WCI  -6
LANSING*       SUNNY     13   2  61 NW14      30.04R WCI  -2
JOLIET*        SUNNY     13   4  66 W10G18    30.07R WCI   0
WAUKEGAN         N/A     12   1  61 NW12G18   30.01R WCI  -2
DUPAGE AIRPORT CLOUDY    11   2  67 W10       30.03R WCI  -3
WHEELING       SUNNY     12   0  58 NW16      30.04R WCI  -5
KANKAKEE*      SUNNY     13   3  65 W12       30.07R WCI  -1
MORRIS*        SUNNY     11   3  68 NW14      30.05R WCI  -4
LEWIS AIRPORT* PTSUNNY   12   4  69 NW14      30.05R WCI  -3
$$

WIZ051-052-058>065-066-070>072-101600-
SOUTHEAST WISCONSIN

CITY           SKY/WX    TMP DP  RH WIND       PRES   REMARKS
MILWAUKEE      MOSUNNY   12  -1  56 NW13      30.01R WCI  -3
KENOSHA*       PTSUNNY   11   0  61 NW13      30.01R WCI  -4
RACINE*        SUNNY     11  -2  56 N14G22    30.02R WCI  -5
BURLINGTON     CLOUDY    10   0  64 W10       30.01R WCI  -4
WAUKESHA       PTSUNNY    9  -2  61 NW12G23   30.00R WCI  -6
WEST BEND      CLOUDY    10  -4  52 NW14      29.99S WCI  -5
$$

INZ001>003-010>013-019-020-101600-
NORTHWEST INDIANA

CITY           SKY/WX    TMP DP  RH WIND       PRES   REMARKS
GARY*          PTSUNNY   14   1  57 W18       30.04R WCI  -3
MICHIGAN CITY* NOT AVBL
RENSSELAER*    NOT AVBL
VALPARAISO     LGT SNOW  13   5  70 W16       30.00R WCI  -3
$$

LMZ740>746-101600-
SOUTHERN LAKE MICHIGAN

STATION/POSITION TIME  SKY/WX   TEMP WIND        PRES    VSBY
                                AIR  DIR/SP/G
                 (UTC)          (F)  (DEG/KT/KT) (MB)    (MI)
HARRISON CRIB    1400            13  310/ 20/ 25   N/A
BURNHAM HARBOR   1500            14  310/  8/ 16   N/A
CALUMET HARBOR   1400            12  280/ 11/ 16 1015.8R
BURNS HARBOR     1403            17  300/ 20     1015.9R
MICHIGAN CITY    1400            17  280/ 19/ 23   N/A
$$

ABBREVIATIONS USED IN REMARKS
   TC - TEMPERATURE IN CELSIUS
  WCI - WIND CHILL INDEX
   HX - HEAT INDEX
  VSB - VISIBILITY
$$




USA.gov is the U.S. government's official web portal to all federal, state and local government web resources and services.